Location: Firnhaberau
(48.4049°N, 10.8963°E)
Time: 08:45:45
(UTC+00:00)

Tiangong - Pass Details

Date: 27 June 2021
Orbit: 374 x 386 km, 41.5° (Epoch: 28 July)

Event Time Altitude Azimuth Distance (km) Brightness Sun altitude
Exits shadow 02:07:01 13° 231° (SW) 1,216 3.0 -9.1°
Maximum altitude 02:09:00 22° 184° (S) 877 2.4 -8.9°
Drops below altitude 10° 02:11:31 10° 130° (SE) 1,389 3.9 -8.6°
Sets 02:13:51 0° 115° (ESE) 2,244 5.1 -8.4°
